Mobile Downtown, AL

10:09 PM CDT on April 26, 2018 (GMT -0500)
Mobile Downtown

Weather History for KBFM - August, 2013

Change the Weather History Date:

Monday, August 12, 2013

  Actual Average Record
Temperature  
Mean Temperature 82 °F -  
Max Temperature 88 °F 87 °F 96 °F (2015)
Min Temperature 77 °F 72 °F 70 °F (2014)
Cooling Degree Days 17    
Growing Degree Days 32 (Base 50)    
Moisture  
Dew Point 77 °F    
Average Humidity 84    
Maximum Humidity 96    
Minimum Humidity 74    
Precipitation  
Precipitation 0.08 in - - ()
Sea Level Pressure  
Sea Level Pressure 30.10 in    
Wind  
Wind Speed 2 mph (SSW)    
Max Wind Speed 6 mph    
Max Gust Speed -    
Visibility 10 miles    
Events Rain , Thunderstorm    
Averages and records for this station are not official NWS values.
T = Trace of Precipitation, MM = Missing Value Source: NWS Daily Summary

Daily Weather History Graph

Daily Weather History Graph

Search for Another Location

Airport or City:

Astronomy

Aug. 12, 2013 Rise Set
Actual Time 6:17 AM CDT 7:36 PM CDT
Civil Twilight 5:51 AM CDT 8:02 PM CDT
Nautical Twilight 5:21 AM CDT 8:32 PM CDT
Astronomical Twilight 4:49 AM CDT 9:04 PM CDT
Moon 11:39 AM CDT (8/12) 10:59 PM CDT (8/12)
Length of Visible Light 14h 10m
Length of Day
13h 19m
Waxing Crescent, 31% of the Moon is Illuminated
Aug 12
Waxing Crescent
Aug 14
First Quarter
Aug 20
Full
Aug 28
Last Quarter
Sep 5
New

Hourly Weather History & Observations

Time (CDT) Temp. Heat Index Dew Point Humidity Pressure Visibility Wind Dir Wind Speed Gust Speed Precip Events Conditions
12:53 AM 81.0 °F 86.7 °F 75.0 °F 82% 30.13 in 10.0 mi Variable 3.5 mph - N/A   Clear
1:53 AM 78.1 °F - 75.0 °F 90% 30.11 in 10.0 mi Calm Calm - N/A   Clear
2:53 AM 78.1 °F - 75.9 °F 93% 30.10 in 10.0 mi Calm Calm - N/A   Clear
3:53 AM 77.0 °F - 75.9 °F 96% 30.10 in 10.0 mi Calm Calm - N/A   Clear
4:53 AM 78.1 °F - 75.9 °F 93% 30.10 in 10.0 mi Calm Calm - N/A   Clear
5:20 AM 78.8 °F - 77.0 °F 94% 30.10 in 10.0 mi NW 3.5 mph - N/A Thunderstorm Thunderstorm
5:50 AM 78.8 °F - 75.2 °F 89% 30.10 in 10.0 mi WNW 3.5 mph - N/A   Clear
5:53 AM 79.0 °F - 75.9 °F 90% 30.10 in 10.0 mi Calm Calm - N/A   Clear
6:53 AM 80.1 °F 85.8 °F 77.0 °F 90% 30.12 in 10.0 mi Calm Calm - N/A Thunderstorm Thunderstorm
7:53 AM 82.0 °F 88.6 °F 75.0 °F 79% 30.12 in 10.0 mi East 4.6 mph - N/A   Scattered Clouds
8:53 AM 84.9 °F 96.6 °F 78.1 °F 80% 30.13 in 10.0 mi East 4.6 mph - N/A   Scattered Clouds
9:53 AM 86.0 °F 98.3 °F 78.1 °F 77% 30.13 in 10.0 mi ESE 5.8 mph - N/A   Scattered Clouds
10:15 AM 82.4 °F 90.9 °F 77.0 °F 84% 30.13 in 4.0 mi Calm Calm - N/A Rain , Thunderstorm Thunderstorms and Rain
10:50 AM 86.0 °F 96.9 °F 77.0 °F 74% 30.13 in 10.0 mi Calm Calm - N/A Thunderstorm Thunderstorm
10:53 AM 87.1 °F 99.8 °F 78.1 °F 74% 30.13 in 10.0 mi Calm Calm - 0.07 in Thunderstorm Thunderstorm
11:53 AM 82.0 °F 90.2 °F 77.0 °F 85% 30.13 in 10.0 mi SW 4.6 mph - 0.01 in   Mostly Cloudy
12:20 PM 84.2 °F 94.1 °F 77.0 °F 79% 30.12 in 10.0 mi South 5.8 mph - N/A Thunderstorm Thunderstorm
12:53 PM 82.4 °F 89.5 °F 75.2 °F 79% 30.12 in 10.0 mi South 5.8 mph - N/A Thunderstorm Thunderstorm
1:53 PM 81.0 °F 86.2 °F 73.9 °F 79% 30.11 in 10.0 mi South 5.8 mph - N/A   Mostly Cloudy
2:53 PM 84.0 °F 92.6 °F 75.9 °F 76% 30.09 in 10.0 mi Calm Calm - N/A   Scattered Clouds
3:53 PM 84.9 °F 94.1 °F 75.9 °F 74% 30.07 in 10.0 mi Calm Calm - N/A   Partly Cloudy
4:53 PM 86.0 °F 96.9 °F 77.0 °F 74% 30.06 in 10.0 mi SSW 3.5 mph - N/A   Partly Cloudy
5:53 PM 84.9 °F 94.1 °F 75.9 °F 74% 30.06 in 10.0 mi Calm Calm - N/A   Mostly Cloudy
6:53 PM 84.9 °F 96.6 °F 78.1 °F 80% 30.05 in 10.0 mi Calm Calm - 0.00 in   Scattered Clouds
7:53 PM 81.0 °F 88.6 °F 78.1 °F 91% 30.05 in 10.0 mi Calm Calm - N/A   Partly Cloudy
8:53 PM 80.1 °F 86.4 °F 78.1 °F 94% 30.06 in 10.0 mi Calm Calm - N/A   Partly Cloudy
9:53 PM 81.0 °F 87.9 °F 77.0 °F 88% 30.07 in 10.0 mi Calm Calm - N/A   Scattered Clouds
10:35 PM 80.6 °F 87.1 °F 77.0 °F 89% 30.07 in 10.0 mi Calm Calm - N/A Thunderstorm Clear
10:50 PM 80.6 °F 87.1 °F 77.0 °F 89% 30.06 in 10.0 mi Calm Calm - N/A   Clear
10:53 PM 81.0 °F 87.9 °F 77.0 °F 88% 30.06 in 10.0 mi Calm Calm - N/A   Clear
11:53 PM 80.1 °F 85.8 °F 77.0 °F 90% 30.05 in 10.0 mi West 3.5 mph - N/A   Clear